This is the latest recevied weather packets stored in our database for station/object GOLDWX. If no packets are shown the sender has not sent any weather packets the latest 10 day(s).
| Time | Temp. | Humidity | Pressure | Rain* | Wind** | Luminosity | Snow |
|---|---|---|---|---|---|---|---|
| 1777812618 | 7.78° C | 42% | 1013.4 hPa | 0 mm | - | - | - |
| 1777812317 | 8.33° C | 42% | 1013.3 hPa | 0 mm | - | - | - |
| 1777811716 | 8.33° C | 40% | 1013.3 hPa | 0 mm | - | - | - |
| 1777811416 | 8.33° C | 39% | 1013.2 hPa | 0 mm | - | - | - |
| 1777810813 | 8.33° C | 42% | 1013.2 hPa | 0 mm | - | - | - |
| 1777810512 | 8.89° C | 41% | 1013.2 hPa | 0 mm | - | - | - |
| 1777809910 | 8.89° C | 41% | 1013.3 hPa | 0 mm | - | - | - |
| 1777809610 | 9.44° C | 40% | 1013.4 hPa | 0 mm | - | - | - |
| 1777809008 | 9.44° C | 39% | 1013.4 hPa | 0 mm | - | - | - |
| 1777808707 | 9.44° C | 39% | 1013.3 hPa | 0 mm | - | - | - |
| 1777808105 | 9.44° C | 40% | 1013.5 hPa | 0 mm | - | - | - |
| 1777807805 | 9.44° C | 40% | 1013.5 hPa | 0 mm | - | - | - |
| 1777807204 | 10° C | 39% | 1013.5 hPa | 0 mm | - | - | - |
| 1777806902 | 10° C | 37% | 1013.6 hPa | 0 mm | - | - | - |
| 1777806299 | 10° C | 35% | 1013.6 hPa | 0 mm | - | - | - |
| 1777805999 | 10° C | 35% | 1013.7 hPa | 0 mm | - | - | - |
| 1777805397 | 10° C | 37% | 1013.7 hPa | 0 mm | - | - | - |
| 1777805096 | 9.44° C | 37% | 1013.7 hPa | 0 mm | - | - | - |
| 1777804494 | 10° C | 37% | 1013.7 hPa | 0 mm | - | - | - |
| 1777804194 | 10° C | 36% | 1013.7 hPa | 0 mm | - | - | - |
| 1777803592 | 10.56° C | 35% | 1013.8 hPa | 0 mm | - | - | - |
| 1777803291 | 10.56° C | 35% | 1013.7 hPa | 0 mm | - | - | - |
| 1777802690 | 10.56° C | 33% | 1013.6 hPa | 0 mm | - | - | - |
| 1777802389 | 10.56° C | 35% | 1013.6 hPa | 0 mm | - | - | - |
| 1777801787 | 11.11° C | 33% | 1013.5 hPa | 0 mm | - | - | - |
* Rain since midnight (hover to see other rain measurements)
** Current wind speed in m/s (hover to see current wind gust speed)